Weather in zheleznodorozhnaya stantsiya Taltsy

Russia / Novgorod Oblast     59°11′42″N   32°53′15″E
temp.,
°C
wind,
m/s
gust,
m/s
humid.,
%
clouds,
%
prec.,
mm/h
press.,
hPa
HPBL,
m
16 october, sat
sat1600:00+7ssw71590100 0.8 1002973
03:00+8ssw61489100 2.6 10001058
06:00+8sw51281100 1.1 10001192
09:00+6sw4117896 1.1 1001778
12:00+7sw511735 0.1 10021215
15:00+8sw6116889 0.3 10021491
18:00+6sw5117136 0.1 1003873
21:00+5sw51373100 0.1 1003779
17 october, sun
sun1700:00+6sw61283100 0.3 10021121
03:00+6sw4107888 1.3 1002989
06:00+6sw6138399 0.6 1001873
09:00+5wsw61284100 0.8 10021153
12:00+6wsw5107777 0.1 10031054
15:00+7wsw51169100 0.3 10031351
18:00+5wsw5117178 0.1 1004794
21:00+4wsw512795 0.1 1005743
18 october, mon
mon1800:00+3sw412865 0.0 1005567
03:00+2sw411895 0.0 1004449
06:00+1sw41189100 0.0 1003504
09:00+2sw4118411 0.1 1003658
12:00+3wsw51195100 0.1 1003833
15:00+3w4996100 0.4 1005698
18:00+2wnw3886100 0.3 1007463
21:00+1w3109299 0.4 1008448
19 october, tue
tue1900:00+2wnw3997100 0.1 1010551
03:00+3nw3891100 0.4 1012608
06:00+3nw379099 0.1 1014701
09:00+2nw368997 0.3 1016401
12:00+2nw3796100 0.4 1017598
15:00+2nw4787100 1.0 1018840
18:00+1nnw388515 0.3 1020692
21:00−2wnw25926 0.4 1021123
20 october, wed
wed2000:00−2wnw239365 0.0 102196
03:00−2wsw1194100 0.0 102141
06:00−1ssw138889 0.0 1021134
09:00−1s3780100 0.0 1019347
12:00+1s4967100 0.0 1016747
15:00+2s51266100 0.0 1012828
18:00+1sse71696100 2.1 1007868
21:00+3s81887100 4.2 10001028